Find Local Weather

World > North America > United States > California

San Jose, California Regional Weather

Lat: 37.30N, Lon: 121.85W
Wx Zone: CAZ513
Feedback
Expires:201808202300;;967149
ASUS46 KSTO 202215
RWRCA 

NORTHERN AND CENTRAL CA REGIONAL WEATHER ROUNDUP
NATIONAL WEATHER SERVICE SACRAMENTO CA 
300 PM PDT MON AUG 20 2018

NOTE: FAIR INDICATES FEW OR NO CLOUDS BELOW 12,000 FEET WITH NO
SIGNIFICANT WEATHER AND/OR OBSTRUCTIONS TO VISIBILITY.


CAZ006-505>513-202300-
BAY AREA
  
CITY           SKY/WX    TMP DP  RH WIND       PRES   REMARKS
SANTA ROSA     SUNNY     79  57  46 S8        29.83F                  
SAN RAFAEL     N/A       64  MM  MM MISG
NAPA           SUNNY     69  55  60 S17       29.88F                  
CONCORD        SUNNY     82  51  34 S14       29.85F                  
OAKLAND CITY   N/A       MM  MM  MM MISG
OAKLAND        MOSUNNY   65  54  67 NW12      29.90F                  
SAN FRAN CITY  N/A       60  MM  75 MISG
SAN FRAN ARPT  MOSUNNY   71  53  52 W16       29.88F                  
LIVERMORE      SUNNY     80  55  42 NW13      29.85F                  
HAYWARD        SUNNY     70  55  59 NW10      29.90F                  
REDWOOD CITY   N/A       71  MM  62 MISG
MOFFETT ARPT   SUNNY     73  57  57 N12       29.89F                  
SAN JOSE ARPT  MOSUNNY   77  57  50 NW10      29.87F                  
$$

SKY/WX - Weather  TMP - Temperature  DP - Dewpoint  RH - Relative Humidity
WIND - Wind Direction/Speed PRES - Barometric Pressure